TCA7378 SVMP-SVBC

Flight info

Callsign TCA7378
Flight time N/A
Altitude 23000
Route USOTI W14 GEMAP DCT BNA
Aircraft C25B/M-SDE2E3FGHRWXY/LB1

Departure

Time N/A
Airport SVMP

Arrival

Time 2026-04-14 20:12
Airport General José Antonio Anzoategui International Airport (SVBC)
Time Latitude Longitude Altitude Speed Heading
2026-04-14 19:29 10.13481 -66.78766 577 ft 0 kts 168°
2026-04-14 19:36 10.13446 -66.78756 577 ft 11 kts 159°
2026-04-14 19:36 10.13392 -66.78733 578 ft 0 kts 139°
2026-04-14 19:36 10.13380 -66.78737 578 ft 7 kts 259°
2026-04-14 19:36 10.13360 -66.78845 577 ft 19 kts 257°
2026-04-14 19:37 10.13331 -66.78977 577 ft 19 kts 257°
2026-04-14 19:37 10.13300 -66.79113 578 ft 20 kts 257°
2026-04-14 19:37 10.13268 -66.79254 578 ft 21 kts 257°
2026-04-14 19:37 10.13244 -66.79364 578 ft 16 kts 256°
2026-04-14 19:38 10.13190 -66.79407 579 ft 8 kts 152°
2026-04-14 19:38 10.13181 -66.79387 579 ft 0 kts 76°
2026-04-14 19:38 10.13184 -66.79376 579 ft 18 kts 77°
2026-04-14 19:38 10.13310 -66.78818 593 ft 139 kts 77°
2026-04-14 19:39 10.13573 -66.77715 1443 ft 177 kts 75°
2026-04-14 19:39 10.13868 -66.76388 2609 ft 208 kts 76°
2026-04-14 19:39 10.14195 -66.74884 3429 ft 230 kts 79°
2026-04-14 19:39 10.13924 -66.73253 4244 ft 239 kts 112°
2026-04-14 19:40 10.13327 -66.71673 5215 ft 241 kts 105°
2026-04-14 19:40 10.12935 -66.70012 6143 ft 244 kts 102°
2026-04-14 19:40 10.12559 -66.68358 7075 ft 244 kts 103°
2026-04-14 19:40 10.12164 -66.66667 7945 ft 248 kts 104°
2026-04-14 19:41 10.11753 -66.64955 8767 ft 252 kts 104°
2026-04-14 19:41 10.11335 -66.63213 9557 ft 256 kts 104°
2026-04-14 19:41 10.10917 -66.61442 10318 ft 260 kts 104°
2026-04-14 19:41 10.10488 -66.59644 11062 ft 265 kts 105°
2026-04-14 19:42 10.10055 -66.57811 11793 ft 269 kts 105°
2026-04-14 19:42 10.09607 -66.55954 12540 ft 274 kts 105°
2026-04-14 19:42 10.09166 -66.54084 13244 ft 278 kts 105°
2026-04-14 19:42 10.08708 -66.52156 13930 ft 283 kts 106°
2026-04-14 19:43 10.08239 -66.50197 14610 ft 288 kts 106°
2026-04-14 19:43 10.07767 -66.48200 15235 ft 294 kts 106°
2026-04-14 19:43 10.07277 -66.46174 15886 ft 298 kts 106°
2026-04-14 19:43 10.06788 -66.44114 16488 ft 303 kts 106°
2026-04-14 19:44 10.06291 -66.42020 17068 ft 308 kts 106°
2026-04-14 19:44 10.05790 -66.39925 17668 ft 311 kts 107°
2026-04-14 19:44 10.05274 -66.37772 18193 ft 317 kts 107°
2026-04-14 19:44 10.04756 -66.35583 18710 ft 321 kts 106°
2026-04-14 19:45 10.04229 -66.33372 19257 ft 324 kts 107°
2026-04-14 19:45 10.03690 -66.31136 19746 ft 328 kts 106°
2026-04-14 19:45 10.03151 -66.28881 20276 ft 331 kts 106°
2026-04-14 19:45 10.02641 -66.26590 20777 ft 334 kts 102°
2026-04-14 19:46 10.02593 -66.24218 21208 ft 341 kts 87°
2026-04-14 19:46 10.02752 -66.21841 21670 ft 344 kts 88°
2026-04-14 19:46 10.02900 -66.19405 22116 ft 347 kts 87°
2026-04-14 19:46 10.03069 -66.16953 22547 ft 350 kts 87°
2026-04-14 19:47 10.03231 -66.14480 22957 ft 354 kts 87°
2026-04-14 19:47 10.03397 -66.11932 22979 ft 370 kts 87°
2026-04-14 19:47 10.03573 -66.09280 22989 ft 383 kts 86°
2026-04-14 19:47 10.03749 -66.06542 22900 ft 392 kts 87°
2026-04-14 19:48 10.03943 -66.03802 22896 ft 387 kts 86°
2026-04-14 19:48 10.04160 -66.01082 22897 ft 387 kts 86°
2026-04-14 19:48 10.04365 -65.98391 22898 ft 388 kts 86°
2026-04-14 19:48 10.04559 -65.95660 22900 ft 389 kts 86°
2026-04-14 19:49 10.04764 -65.92912 22882 ft 390 kts 86°
2026-04-14 19:49 10.04962 -65.90170 22889 ft 391 kts 86°
2026-04-14 19:49 10.05168 -65.87419 22887 ft 391 kts 86°
2026-04-14 19:49 10.05373 -65.84666 22886 ft 391 kts 86°
2026-04-14 19:50 10.05568 -65.81911 22893 ft 392 kts 86°
2026-04-14 19:50 10.05777 -65.79152 22891 ft 393 kts 86°
2026-04-14 19:50 10.05978 -65.76391 22889 ft 392 kts 86°
2026-04-14 19:50 10.06173 -65.73668 22891 ft 392 kts 86°
2026-04-14 19:51 10.06379 -65.70908 22879 ft 393 kts 86°
2026-04-14 19:51 10.06580 -65.68142 22878 ft 393 kts 86°
2026-04-14 19:51 10.06786 -65.65378 22879 ft 393 kts 86°
2026-04-14 19:51 10.06978 -65.62612 22881 ft 393 kts 86°
2026-04-14 19:52 10.07184 -65.59846 22882 ft 393 kts 86°
2026-04-14 19:52 10.07389 -65.57116 22879 ft 393 kts 86°
2026-04-14 19:52 10.07585 -65.54348 22879 ft 393 kts 86°
2026-04-14 19:52 10.07761 -65.51585 22876 ft 393 kts 89°
2026-04-14 19:53 10.07481 -65.48842 22861 ft 391 kts 103°
2026-04-14 19:53 10.06731 -65.46208 22862 ft 387 kts 115°
2026-04-14 19:53 10.05494 -65.43801 22860 ft 383 kts 125°
2026-04-14 19:53 10.03861 -65.41699 22860 ft 378 kts 136°
2026-04-14 19:54 10.02133 -65.39684 22861 ft 379 kts 134°
2026-04-14 19:54 9.98724 -65.35659 22863 ft 379 kts 135°
2026-04-14 19:54 9.96988 -65.33648 22866 ft 379 kts 135°
2026-04-14 19:55 9.95262 -65.31623 22867 ft 379 kts 134°
2026-04-14 19:55 9.93540 -65.29596 22868 ft 379 kts 135°
2026-04-14 19:55 9.91808 -65.27579 22868 ft 379 kts 135°
2026-04-14 19:55 9.90086 -65.25561 22869 ft 379 kts 135°
2026-04-14 19:56 9.88351 -65.23539 22870 ft 379 kts 135°
2026-04-14 19:56 9.86630 -65.21518 22870 ft 379 kts 134°
2026-04-14 19:56 9.84922 -65.19527 22869 ft 379 kts 135°
2026-04-14 19:56 9.83198 -65.17510 22870 ft 379 kts 134°
2026-04-14 19:57 9.81476 -65.15496 22870 ft 378 kts 135°
2026-04-14 19:57 9.79754 -65.13484 22870 ft 378 kts 135°
2026-04-14 19:57 9.78030 -65.11475 22871 ft 378 kts 135°
2026-04-14 19:57 9.76309 -65.09457 22871 ft 378 kts 135°
2026-04-14 19:58 9.74586 -65.07449 22870 ft 377 kts 135°
2026-04-14 19:58 9.72867 -65.05442 22870 ft 377 kts 135°
2026-04-14 19:58 9.71146 -65.03435 22869 ft 376 kts 135°
2026-04-14 19:58 9.69452 -65.01458 22866 ft 377 kts 135°
2026-04-14 19:59 9.67706 -64.99415 22100 ft 392 kts 135°
2026-04-14 19:59 9.65908 -64.97326 21198 ft 391 kts 134°
2026-04-14 19:59 9.64177 -64.95293 20864 ft 370 kts 134°
2026-04-14 19:59 9.62539 -64.93375 20645 ft 350 kts 135°
2026-04-14 20:00 9.60966 -64.91551 20297 ft 339 kts 135°
2026-04-14 20:00 9.59432 -64.89761 19807 ft 335 kts 135°
2026-04-14 20:00 9.57904 -64.87991 19265 ft 332 kts 135°
2026-04-14 20:00 9.56392 -64.86227 18703 ft 331 kts 135°
2026-04-14 20:01 9.55027 -64.84393 18138 ft 333 kts 123°
2026-04-14 20:01 9.54069 -64.82250 17549 ft 335 kts 113°
2026-04-14 20:01 9.53567 -64.79941 16956 ft 338 kts 99°
2026-04-14 20:01 9.53535 -64.77566 16364 ft 338 kts 86°
2026-04-14 20:02 9.54018 -64.75240 15760 ft 337 kts 74°
2026-04-14 20:02 9.54967 -64.73082 15161 ft 334 kts 60°
2026-04-14 20:02 9.56310 -64.71185 14571 ft 330 kts 47°
2026-04-14 20:02 9.58001 -64.69641 13986 ft 325 kts 36°
2026-04-14 20:03 9.59932 -64.68498 13421 ft 319 kts 23°
2026-04-14 20:03 9.61975 -64.67770 12983 ft 307 kts 13°
2026-04-14 20:03 9.63996 -64.67248 12456 ft 301 kts 14°
2026-04-14 20:03 9.65999 -64.66679 11926 ft 297 kts 15°
2026-04-14 20:04 9.67977 -64.66135 11404 ft 293 kts 15°
2026-04-14 20:04 9.69930 -64.65598 10889 ft 289 kts 15°
2026-04-14 20:04 9.71853 -64.65078 10385 ft 283 kts 15°
2026-04-14 20:04 9.73720 -64.64559 9889 ft 274 kts 15°
2026-04-14 20:05 9.75533 -64.64065 9411 ft 266 kts 15°
2026-04-14 20:05 9.77294 -64.63583 8947 ft 259 kts 16°
2026-04-14 20:05 9.78983 -64.63118 8506 ft 251 kts 16°
2026-04-14 20:05 9.80653 -64.62660 8071 ft 246 kts 16°
2026-04-14 20:06 9.82286 -64.62215 7642 ft 241 kts 16°
2026-04-14 20:06 9.83886 -64.61773 7225 ft 236 kts 16°
2026-04-14 20:06 9.85461 -64.61344 6814 ft 233 kts 16°
2026-04-14 20:06 9.87011 -64.60920 6411 ft 229 kts 17°
2026-04-14 20:07 9.88536 -64.60494 6014 ft 226 kts 16°
2026-04-14 20:07 9.89538 -64.60239 5752 ft 223 kts 13°
2026-04-14 20:07 9.91076 -64.60229 5362 ft 221 kts 354°
2026-04-14 20:07 9.93090 -64.60363 4863 ft 218 kts 359°
2026-04-14 20:08 9.94601 -64.60446 4481 ft 217 kts 357°
2026-04-14 20:08 9.96104 -64.60545 4106 ft 216 kts 358°
2026-04-14 20:08 9.97595 -64.60640 3730 ft 213 kts 358°
2026-04-14 20:08 9.99023 -64.60739 3371 ft 199 kts 358°
2026-04-14 20:09 9.99905 -64.60872 3146 ft 190 kts 346°
2026-04-14 20:09 10.01059 -64.61451 2804 ft 181 kts 329°
2026-04-14 20:09 10.02362 -64.62453 2431 ft 177 kts 325°
2026-04-14 20:09 10.03356 -64.63205 2130 ft 178 kts 326°
2026-04-14 20:10 10.04344 -64.63976 1834 ft 179 kts 324°
2026-04-14 20:10 10.05329 -64.64739 1534 ft 177 kts 326°
2026-04-14 20:10 10.06240 -64.65437 1271 ft 143 kts 326°
2026-04-14 20:10 10.06722 -64.65829 1118 ft 128 kts 326°
2026-04-14 20:11 10.07386 -64.66347 912 ft 115 kts 327°
2026-04-14 20:11 10.08027 -64.66822 723 ft 113 kts 328°
2026-04-14 20:11 10.08661 -64.67310 533 ft 116 kts 327°
2026-04-14 20:11 10.09495 -64.67963 251 ft 112 kts 324°
2026-04-14 20:12 10.10103 -64.68431 69 ft 107 kts 323°
2026-04-14 20:12 10.10638 -64.68849 31 ft 63 kts 323°
2026-04-14 20:12 10.10724 -64.68891 30 ft 8 kts 49°
2026-04-14 20:12 10.10742 -64.68840 33 ft 8 kts 77°
2026-04-14 20:13 10.10757 -64.68776 34 ft 11 kts 77°
2026-04-14 20:13 10.10746 -64.68711 34 ft 7 kts 123°
2026-04-14 20:13 10.10754 -64.68675 34 ft 3 kts 26°
2026-04-14 20:13 10.10758 -64.68674 34 ft 0 kts 355°